This demonstration page uses our WeatherBlox Daily Observations layout. Learn more.

Hourly Observations for August 6, 2016

Temp ( °F °C ) Dew Point ( °F °C ) Humidity (%) Winds ( mph kmh ) Pressure ( in mb ) Visibility ( mi km ) Precip ( " mm )
12:54 am 00:54 Clear 69 20.6 64 17.8 84 84 N 6 9 30.06 1018 10 16.0934 0 0
1:54 am 01:54 Clear 68 20 64 17.8 87 87 N 3 6 30.07 1018 10 16.0934 0 0
2:54 am 02:54 Clear 69 20.6 64 17.8 84 84 NNW 5 7 30.07 1018 10 16.0934 0 0
3:54 am 03:54 Cloudy 68 20 65 18.3 90 90 N 7 11 30.07 1018 10 16.0934 0 0
4:54 am 04:54 Mostly Clear 67 19.4 65 18.3 93 93 N 7 11 30.05 1018 10 16.0934 0 0
5:54 am 05:54 Partly Cloudy 68 20 64 17.8 87 87 NE 5 7 30.05 1018 10 16.0934 0 0
6:54 am 06:54 Mostly Cloudy with Light Rain 68 20 64 17.8 87 87 ENE 9 15 30.05 1018 10 16.0934 0 0.0254
7:54 am 07:54 Cloudy 69 20.6 64 17.8 84 84 Calm 30.09 1019 10 16.0934 0 0.0254
8:54 am 08:54 Cloudy 71 21.7 63 17.2 76 76 ESE 3 6 30.11 1020 10 16.0934 0 0
9:54 am 09:54 Mostly Cloudy 73 22.8 61 16.1 66 66 E 7 11 30.09 1019 10 16.0934 0 0
10:54 am 10:54 Mostly Cloudy 75 23.9 63 17.2 66 66 ENE 8 13 30.09 1019 10 16.0934 0 0
11:54 am 11:54 Mostly Sunny 76 24.4 61 16.1 60 60 ENE 8 13 30.09 1019 10 16.0934 0 0
12:54 pm 12:54 Cloudy 78 25.6 60 15.6 54 54 E 12 19 30.09 1019 10 16.0934 0 0
1:54 pm 13:54 Cloudy 79 26.1 60 15.6 52 52 NE 12 19 30.07 1018 10 16.0934 0 0
2:54 pm 14:54 Mostly Cloudy 79 26.1 61 16.1 54 54 NE 10 17 30.05 1018 10 16.0934 0 0
3:54 pm 15:54 Mostly Cloudy 78 25.6 61 16.1 56 56 NE 10 17 30.04 1017 10 16.0934 0 0
4:54 pm 16:54 Mostly Cloudy 78 25.6 61 16.1 56 56 ENE 8 13 30.04 1017 10 16.0934 0 0
5:54 pm 17:54 Mostly Cloudy 77 25 60 15.6 56 56 ENE 8 13 30.03 1017 10 16.0934 0 0
6:54 pm 18:54 Cloudy 76 24.4 61 16.1 60 60 NE 9 15 30.02 1017 10 16.0934 0 0
7:54 pm 19:54 Mostly Cloudy 74 23.3 60 15.6 62 62 ENE 8 13 30.02 1017 10 16.0934 0 0
8:54 pm 20:54 Cloudy 73 22.8 61 16.1 66 66 ENE 6 9 30.03 1017 10 16.0934 0 0
9:54 pm 21:54 Partly Cloudy 74 23.3 61 16.1 64 64 ESE 5 7 30.04 1017 10 16.0934 0 0
10:54 pm 22:54 Mostly Cloudy 73 22.8 61 16.1 66 66 E 3 6 30.06 1018 10 16.0934 0 0
11:54 pm 23:54 Cloudy 73 22.8 61 16.1 66 66 E 7 11 30.05 1018 10 16.0934 0 0

Powered by AerisWeather